Погода в Нововоронеже

Россия / Воронежская область     51°18′33″N   39°12′58″E
темп.,
°C
ветер,
м/с
пор.,
м/с
влажн.,
%
обл.,
%
осадки,
мм/ч
давл.,
гПа
погр.,
м
21 апреля, ср
ср2100:00+6всв3496100 2.0 1003272
03:00+9ю71291100 3.0 1002762
06:00+9ююв51090100 0.3 1003534
09:00+5сз81194100 1.7 1007484
12:00+8зюз6878100 0.1 1011918
15:00+9юз4778100 0.1 1012824
18:00+10зюз37755 0.4 1013805
21:00+7юз348316 0.4 101555
22 апреля, чт
чт2200:00+6зюз379017 0.0 1017153
03:00+5зюз229120 0.0 101845
06:00+5юз11925 0.0 101915
09:00+10юз35741 0.0 1020612
12:00+14юз45516 0.0 10211659
15:00+16юз454261 0.0 10202197
18:00+15ююз35517 0.0 1020188
21:00+11ю226189 0.0 102113
23 апреля, пт
пт2300:00+11ю3363100 0.0 102163
03:00+11ююз2369100 0.0 102044
06:00+10ю2474100 0.0 1020113
09:00+14ю46587 0.2 1020504
12:00+16ююз6744100 0.7 10192502
15:00+16ю574468 0.7 10171956
18:00+15ю475517 0.0 1016407
21:00+11ююв41169100 0.0 1015247
24 апреля, сб
сб2400:00+11ююз61366100 0.1 1013432
03:00+9юз51284100 0.3 1012520
06:00+8зюз5790100 0.5 1011702
09:00+5сз5892100 1.5 1013731
12:00+9з575897 0.4 10131562
15:00+11з794997 1.6 10121901
18:00+9з68576 0.5 10121255
21:00+6з2471100 0.5 101380
25 апреля, вс
вс2500:00+5з378098 0.3 1014188
03:00+3з49854 0.3 1015216
06:00+2з410865 0.0 1017362
09:00+7з69585 0.0 10171419
12:00+10з7842100 0.3 10172521
15:00+10зюз71037100 0.3 10172594
18:00+9з594855 0.1 10161739
21:00+5зюз116915 0.1 101710